SCP
0 0 0 0 0 0 0 0 0 0 0 0 0 0 0 0 0 0 0 0 0 0 0 0 1 1 1 1 0 0 0 0 0 0 0 0 0 0 0 0 0 0 0 0 0 0 0 0 0
0 0 0 0 0 0 0 0 0 0 0 0 0 0 0 0 0 0 0 0 0 0 0 0 1 1 1 1 0 0 0 0 0 0 0 0 0 0 0 0 0 0 0 0 0 0 0 0 0
0 0 0 0 0 0 0 0 0 0 0 0 0 0 0 0 0 0 0 0 0 0 0 1 1 1 1 1 0 0 0 0 0 0 0 0 0 0 0 0 0 0 0 0 0 0 0 0 0
0 0 0 0 0 0 0 0 0 0 0 0 0 0 0 0 0 0 0 0 0 0 0 1 1 1 1 1 1 0 0 0 0 0 0 0 0 0 0 0 0 0 0 0 0 0 0 0 0
0 0 0 0 0 0 0 0 0 0 0 0 0 0 0 0 0 0 0 0 0 0 0 1 1 1 1 1 1 0 0 0 0 0 0 0 0 0 0 0 0 0 0 0 0 0 0 0 0
0 0 0 0 0 0 0 0 0 0 0 0 0 0 0 0 0 0 0 0 0 0 0 1 1 1 1 1 1 0 0 0 0 0 0 0 0 0 0 0 0 0 0 0 0 0 0 0 0
0 0 0 0 0 0 0 0 0 0 0 0 0 0 0 0 0 0 0 0 0 0 0 0 0 1 1 1 1 1 0 0 0 0 0 0 0 0 0 0 0 0 0 0 0 0 0 0 0
0 0 0 0 0 0 0 0 0 0 0 0 0 0 0 0 0 0 0 0 0 0 0 0 0 0 0 0 0 0 0 0 0 0 0 0 0 0 0 0 0 0 0 0 0 0 0 0 0
0 0 0 0 0 0 0 0 0 0 0 0 0 0 0 0 0 0 0 0 0 0 0 0 0 0 0 0 0 0 0 0 0 0 0 0 0 0 0 0 0 0 0 0 0 0 0 0 0
0 0 0 0 0 0 0 0 0 0 0 0 0 0 0 0 0 0 0 0 0 0 0 0 0 0 0 0 0 0 0 0 0 0 0 0 0 0 0 0 0 0 0 0 0 0 0 0 0
0 0 0 0 0 0 0 0 0 0 0 0 0 0 1 1 0 0 0 0 0 0 0 0 0 0 0 0 0 0 0 0 0 0 0 0 0 0 0 0 0 0 0 0 0 0 0 0 0
-0 0 0 0 0 0 0 0 0 0 0 0 0 0 1 1 0 0 0 0 0 0 0 0 0 0 0 0 0 0 0 0 0 0 0 0 0 0 0 0 0 0 0 0 0 0 0 0 0
0 0 0 0 0 0 0 0 0 0 0 0 0 0 0 0 0 0 0 0 0 0 0 0 0 0 0 0 0 0 0 0 0 0 0 0 0 0 0 0 0 0 0 0 0 0 0 0 0
0 0 0 0 0 0 0 0 0 0 0 0 0 0 0 0 0 0 0 0 0 0 0 0 0 0 0 0 0 0 0 0 0 0 0 0 0 0 0 0 0 0 0 0 0 0 0 0 0
0 0 0 0 0 0 0 0 0 0 0 0 0 0 0 0 0 0 0 0 0 0 0 0 0 0 0 0 0 0 0 0 0 0 0 0 0 0 0 0 0 0 0 0 0 0 0 0 0
0 0 0 0 0 0 0 0 0 0 0 0 0 0 0 0 0 0 0 0 0 0 0 0 0 0 0 0 0 0 0 0 0 0 0 0 0 0 0 0 0 0 0 0 0 0 0 0 0
0 0 0 0 0 0 0 0 0 0 0 0 0 0 0 0 0 0 0 0 0 0 0 0 0 0 0 0 0 0 0 0 0 0 0 0 0 0 0 0 0 0 0 0 0 0 0 0 0
0 0 0 0 0 0 0 0 0 0 0 0 0 0 0 0 0 0 0 0 0 0 0 0 0 0 0 0 0 0 0 0 0 0 0 0 0 0 0 0 0 0 0 0 0 0 0 0 0
0 0 0 0 0 0 0 0 0 0 0 0 0 0 0 0 0 0 0 0 0 0 0 0 0 0 0 0 0 0 0 0 0 0 0 0 0 0 0 0 0 0 0 0 0 0 0 0 0
0 0 0 0 0 0 0 0 0 0 0 0 0 0 0 0 0 0 0 0 0 0 0 0 0 0 0 0 0 0 0 0 0 0 0 0 0 0 0 0 0 0 0 0 0 0 0 0 0
0 0 0 0 0 0 0 0 0 0 0 0 0 0 0 0 0 0 0 0 0 0 0 0 0 0 1 1 0 0 0 0 0 0 0 0 0 0 0 0 0 0 0 0 0 0 0 0 0
0 0 0 0 0 0 0 0 0 0 0 0 0 0 0 0 0 0 0 0 0 0 0 0 0 1 1 1 1 1 1 0 0 0 0 0 0 0 0 0 0 0 0 0 0 0 0 0 0
0 0 0 0 0 0 0 0 0 0 0 0 0 0 0 0 0 0 0 0 0 0 0 1 1 1 1 1 1 1 1 1 1 0 0 0 0 0 0 0 0 0 0 0 0 0 0 0 0
0 0 0 0 0 0 0 0 0 0 0 0 0 0 0 0 0 0 0 0 0 0 0 1 1 1 1 1 1 1 1 1 1 0 0 0 0 0 0 0 0 0 0 0 0 0 0 0 0
0 0 0 0 0 0 0 0 0 0 0 0 0 0 0 0 0 0 0 0 0 0 1 1 1 1 1 1 1 1 1 1 1 1 0 0 0 0 0 0 0 0 0 0 0 0 0 0 0
0 0 0 0 0 0 0 0 0 0 0 0 0 0 0 0 0 0 0 1 1 1 1 1 1 1 1 1 1 1 1 1 1 0 0 0 0 0 0 0 0 0 0 0 0 0 0 0 0
0 0 0 0 0 -0 0 0 0 0 0 0 0 0 0 0 0 0 0 0 1 1 1 1 1 1 1 1 1 1 1 1 0 0 0 0 0 0 0 0 0 0 0 0 0 0 0 0 0
0 0 0 0 0 0 0 0 0 0 0 0 0 0 0 0 0 0 0 0 0 1 1 1 1 1 1 0 0 0 0 0 0 0 0 0 0 0 0 0 0 0 0 0 0 0 0 0 0
0 0 0 0 0 0 0 0 0 0 0 0 0 0 0 0 0 0 0 0 0 0 0 0 0 0 0 0 0 0 0 0 0 0 0 0 0 0 0 0 0 0 0 0 0 0 0 0 0
0 0 0 0 0 0 0 0 0 0 0 0 0 0 0 0 0 0 0 0 0 0 0 0 0 0 0 0 0 0 0 0 0 0 0 0 0 0 0 0 0 0 0 0 0 0 0 0 0
Wind_Speed
4 3 2 2 4 5 1 3 2 2 1 1 1 2 3 3 3 2 1 8 10 10 9 10 12 12 12 12 11 11 11 12 12 12 11 11 11 11 11 10 10 9 9 9 8 8 8 9 9
3 2 2 4 5 3 3 3 1 2 1 0 1 1 2 1 1 4 4 6 11 10 8 9 12 12 12 12 12 11 11 12 12 11 11 11 11 10 10 10 10 9 8 8 8 8 8 8 9
2 1 4 4 3 3 3 3 2 1 0 1 1 1 1 2 3 4 4 10 10 9 7 9 13 13 12 12 12 12 12 11 11 11 11 10 10 10 9 9 9 8 8 7 7 8 8 8 9
2 3 5 4 1 4 4 4 1 1 2 2 2 1 0 1 3 5 9 11 10 8 7 8 13 13 13 12 12 11 12 11 11 11 10 10 10 9 8 8 8 7 7 7 7 7 8 8 8
4 4 5 3 3 5 4 4 2 1 1 0 1 1 1 2 5 10 12 11 10 8 6 7 12 13 12 12 12 12 11 11 10 10 9 9 9 8 8 7 7 7 6 6 7 7 6 6 6
4 4 4 2 5 4 3 3 1 1 1 0 2 1 1 2 6 9 10 9 8 9 6 6 12 13 12 12 12 11 11 10 9 9 8 8 7 7 7 7 6 6 6 6 6 6 6 5 5
4 4 2 3 4 5 3 1 2 2 2 3 4 2 1 2 4 8 8 8 7 7 6 5 6 8 11 11 11 11 10 10 9 8 7 7 7 7 7 6 5 5 5 5 5 5 5 4 4
4 4 1 2 3 5 3 1 1 3 3 3 5 5 4 4 7 8 7 7 6 5 5 4 3 4 4 6 10 10 9 9 9 8 7 7 6 6 6 4 4 4 4 4 4 4 3 3 3
4 4 3 5 5 5 2 2 2 1 2 1 2 3 4 11 11 10 7 5 5 6 4 4 4 3 3 4 7 7 8 8 8 6 7 5 2 2 2 3 4 4 3 3 3 3 2 2 2
4 3 8 6 5 4 3 3 3 1 1 1 1 3 8 12 12 11 10 9 9 8 6 4 5 4 4 4 3 2 3 3 3 3 3 2 2 1 2 2 3 3 3 2 2 2 1 1 1
5 7 6 5 5 4 3 4 2 3 4 6 6 8 12 11 10 10 10 9 9 8 7 6 6 5 5 3 3 2 2 2 2 3 3 3 2 1 1 1 0 1 1 0 0 0 1 1 1
4 6 5 5 3 3 4 3 2 5 8 6 8 12 13 13 12 12 11 9 8 7 8 7 6 5 5 4 3 3 2 2 2 3 3 3 2 2 1 1 1 1 0 1 1 1 1 0 1
4 5 4 5 5 4 3 4 4 6 6 3 7 11 13 13 11 9 8 8 8 9 8 8 7 6 5 4 3 4 3 3 3 3 3 4 3 2 2 1 1 1 1 1 1 1 1 1 1
4 4 6 5 3 2 2 4 2 6 3 5 8 10 11 12 11 9 9 9 10 9 8 7 8 7 6 4 4 3 3 3 3 3 4 4 3 3 3 2 1 1 2 2 2 1 1 1 1
2 4 6 3 1 1 2 4 5 6 3 5 7 8 8 9 9 10 11 10 10 9 8 8 8 7 6 6 5 4 3 3 4 3 4 4 4 4 3 2 2 2 2 2 2 1 1 1 1
2 2 4 5 1 1 4 7 9 4 4 5 5 6 7 7 8 8 8 8 8 8 8 8 8 8 7 6 5 3 3 4 3 3 3 4 4 4 3 3 3 2 2 2 2 1 1 1 1
3 1 5 7 2 2 3 7 7 3 4 5 5 6 7 6 6 6 7 8 8 8 9 8 7 7 7 5 3 3 3 3 3 3 3 4 5 5 4 3 3 3 2 2 2 2 2 2 2
4 4 5 6 3 1 3 7 8 4 5 6 6 6 6 8 9 8 7 7 6 7 7 8 7 6 5 4 2 2 2 2 2 3 3 4 4 5 4 3 3 3 3 2 2 2 2 1 1
4 4 8 9 4 1 5 7 8 5 4 6 6 6 7 8 6 5 6 6 6 6 6 7 7 6 6 4 4 4 3 3 3 3 4 4 4 4 4 3 3 3 3 4 3 2 2 1 1
5 5 7 7 3 1 4 7 6 5 6 7 8 8 8 6 4 5 6 6 7 7 7 7 7 7 7 5 5 3 3 2 2 2 3 4 4 4 4 4 4 4 3 3 3 3 2 1 2
6 7 7 5 4 3 2 6 6 5 3 4 5 5 6 8 8 7 7 8 7 8 8 8 8 7 6 5 3 3 2 1 1 2 2 3 4 4 4 5 4 4 4 4 4 4 4 3 2
7 7 7 4 1 4 0 4 8 4 4 5 5 5 6 6 6 6 7 7 8 8 7 6 7 7 6 6 6 6 5 4 4 3 3 2 3 4 4 4 4 4 4 4 4 4 3 4 3
7 3 3 2 2 2 1 2 9 2 5 7 6 6 6 5 6 7 8 8 7 6 6 6 6 6 6 7 7 6 4 3 2 2 3 2 2 3 3 4 4 4 3 4 3 4 4 4 4
4 3 3 3 3 2 4 4 8 5 7 6 5 6 5 5 5 5 5 4 5 5 5 6 6 6 6 6 6 6 6 4 4 3 3 3 2 2 2 3 3 3 3 3 4 4 5 4 4
3 4 3 4 3 6 3 4 10 7 6 6 6 6 5 4 5 5 5 6 6 6 6 6 6 6 5 6 5 5 5 5 5 4 4 3 2 2 3 3 3 3 4 4 4 4 4 5 5
4 8 7 5 5 6 2 6 8 4 3 3 3 3 3 3 4 5 6 6 6 7 6 6 6 6 5 5 5 5 5 4 3 4 3 4 3 4 4 3 3 4 4 4 4 3 4 4 5
5 4 6 6 2 2 6 7 8 2 2 1 2 2 3 3 3 4 4 5 5 6 6 6 6 5 5 5 4 4 4 4 3 3 3 3 2 2 3 3 3 3 3 4 4 3 4 4 4
5 7 5 4 3 4 5 5 5 5 5 3 3 3 4 3 3 3 3 4 5 5 5 5 5 5 4 4 4 4 4 4 3 3 3 3 3 2 2 2 2 2 3 3 4 3 4 4 4
2 3 4 4 4 5 4 8 6 6 5 5 5 4 4 4 3 3 3 3 3 3 4 4 4 4 4 4 4 3 3 3 2 3 3 3 2 3 3 3 3 3 3 3 3 4 4 4 4
4 6 7 5 4 4 4 9 4 3 3 3 4 3 2 2 2 1 1 2 3 3 3 4 4 4 4 4 3 3 2 3 2 2 3 3 3 3 4 3 3 3 3 3 4 4 4 4 5
Wind_Direction
139 125 113 71 54 48 333 280 273 319 327 308 120 139 142 151 172 200 145 142 136 145 156 161 159 154 149 146 141 137 134 133 133 132 130 128 127 126 124 123 121 120 120 121 121 122 120 119 124
130 138 65 57 75 44 298 264 277 270 245 127 65 91 97 115 111 120 131 150 142 147 153 159 158 154 150 147 145 142 140 138 137 137 135 132 130 127 124 124 123 122 119 121 123 121 116 116 121
148 96 78 67 90 178 253 262 242 294 318 80 50 36 112 167 147 159 160 146 138 144 148 160 159 156 153 150 148 147 144 142 142 141 139 137 133 130 127 128 128 127 125 124 122 120 115 117 120
95 49 54 66 267 234 233 258 260 324 354 38 112 51 41 72 156 152 138 141 138 142 146 161 160 158 156 153 151 149 147 147 146 145 145 143 140 136 137 136 134 133 131 127 121 120 118 117 120
63 71 52 18 277 260 250 256 230 225 245 350 131 156 312 14 104 127 137 143 144 144 149 163 161 159 158 157 155 152 150 150 150 148 149 147 146 145 144 142 141 137 135 134 133 130 126 124 123
59 66 76 289 278 277 271 257 206 177 226 201 133 142 302 80 119 137 141 143 146 151 152 159 163 160 160 161 158 156 155 154 151 151 151 150 150 149 147 148 146 146 145 143 143 141 137 133 131
107 100 167 241 281 290 268 257 182 192 210 208 160 144 268 147 134 133 131 129 135 145 148 156 162 163 163 163 162 160 159 157 156 157 158 158 158 157 156 155 153 153 153 151 149 150 148 145 139
129 110 183 247 249 267 264 309 252 201 224 183 151 166 215 181 136 121 117 119 129 143 152 154 150 148 152 161 164 163 163 162 161 162 162 161 160 162 167 163 167 169 169 164 160 155 146 151 158
106 91 225 228 220 252 261 282 288 223 165 188 175 180 173 138 134 129 126 126 144 159 161 156 151 146 143 151 164 160 161 161 161 163 167 155 139 146 160 171 177 180 183 178 168 162 160 159 170
116 171 228 220 205 229 263 253 246 246 222 211 106 94 123 140 148 152 157 164 172 177 176 169 163 157 150 159 148 141 152 150 145 146 151 132 126 143 158 171 180 182 181 186 179 173 158 123 85
173 207 237 246 224 222 240 257 216 179 239 217 194 162 147 154 161 167 172 176 182 178 176 175 173 165 162 159 149 146 141 139 142 148 145 132 125 129 132 117 163 202 186 160 119 18 58 84 130
204 241 233 252 227 215 222 236 234 207 229 215 180 159 157 168 177 180 179 179 175 174 181 177 178 172 173 166 162 162 159 159 165 166 156 147 147 156 159 158 161 151 146 147 142 133 146 184 191
225 260 256 251 255 234 229 238 239 248 248 182 152 157 168 178 186 186 179 176 175 182 183 180 179 178 175 167 173 170 174 175 175 171 173 167 166 173 173 187 171 172 163 171 177 179 194 223 214
249 268 284 283 260 250 223 266 238 259 213 151 156 171 180 183 186 181 180 183 186 187 185 179 180 181 176 175 177 176 180 175 173 184 186 181 175 175 176 191 188 182 174 181 185 195 196 222 221
291 306 312 290 257 260 108 305 250 243 171 176 183 185 186 189 185 188 191 189 188 185 179 180 182 179 179 181 184 181 183 178 184 188 188 186 181 180 179 190 203 197 180 176 174 181 170 206 221
15 358 305 291 238 201 137 263 269 246 170 207 206 190 188 198 199 197 191 187 181 177 178 183 183 179 184 183 183 178 179 183 191 184 186 191 190 183 179 190 209 198 177 171 177 182 177 220 226
18 287 272 295 263 165 168 249 271 265 192 217 219 204 194 200 209 208 194 189 182 180 178 181 181 178 182 179 172 170 166 180 187 184 190 193 193 190 187 196 203 185 175 180 198 178 178 209 234
241 250 263 267 270 206 246 260 278 260 212 218 221 214 205 206 212 206 196 190 181 178 178 181 179 176 167 158 148 147 156 178 186 192 199 190 194 194 191 197 195 181 179 190 190 177 175 186 204
206 234 263 270 267 252 257 268 276 268 229 221 219 217 222 221 220 200 189 183 174 176 180 183 179 175 165 167 173 178 192 194 200 205 199 190 192 191 188 197 190 186 189 194 185 170 172 184 157
220 250 267 286 288 222 273 281 275 255 232 223 214 218 220 218 216 201 189 186 187 189 190 189 186 181 179 181 183 180 172 186 201 208 202 195 194 193 194 192 193 190 185 183 182 167 158 175 164
229 216 238 255 324 347 315 304 289 281 261 251 231 222 219 212 211 204 193 194 191 195 195 197 194 187 183 170 144 119 101 86 159 200 208 207 200 200 198 196 191 190 186 192 193 182 172 178 186
249 229 217 238 268 290 311 287 287 273 279 257 244 233 228 221 207 201 194 194 195 200 195 195 191 184 177 162 164 167 178 192 205 201 205 214 207 205 202 196 193 190 190 194 200 192 180 168 185
225 231 196 214 185 281 279 230 281 289 265 258 244 238 236 218 202 198 197 198 196 189 185 188 181 177 174 175 178 179 186 195 181 175 190 205 214 212 208 200 194 192 192 197 197 187 187 186 187
189 67 53 54 83 270 236 198 273 242 230 249 245 238 236 219 205 199 195 185 186 181 181 178 174 178 176 177 179 184 187 182 176 187 195 204 214 224 219 202 195 193 192 197 201 197 196 199 195
114 96 20 349 354 253 238 211 248 247 231 228 238 240 237 207 190 184 181 188 185 183 185 179 176 183 179 176 183 189 189 183 190 197 196 196 200 216 223 209 203 203 204 204 200 197 208 207 202
179 149 165 209 232 272 287 238 254 252 248 241 240 232 218 206 191 186 191 192 188 187 182 178 181 184 177 178 186 185 181 182 191 198 199 204 210 217 212 205 211 214 210 210 202 205 212 211 208
151 178 172 150 211 270 272 278 299 278 294 261 231 209 209 209 202 197 196 191 186 185 185 184 182 180 179 181 180 181 181 183 194 200 196 207 214 215 208 206 211 214 210 211 201 210 215 210 213
156 149 108 128 176 260 280 268 255 264 257 249 228 213 221 214 212 210 204 197 191 189 183 174 171 178 177 174 181 184 186 190 196 192 199 204 208 200 197 211 210 212 209 205 198 205 213 214 223
131 121 126 136 163 177 255 266 231 228 227 223 226 216 209 206 206 208 212 199 186 170 158 161 165 169 171 177 177 173 182 177 175 190 205 206 207 201 203 214 216 219 225 218 206 215 211 219 229
182 174 154 164 222 191 209 265 275 234 233 214 219 220 204 191 187 192 179 157 152 153 155 170 174 179 182 174 166 172 169 158 169 197 207 200 213 218 214 213 218 225 229 225 215 220 219 221 228